Location: Hamburg
(53.5511°N, 9.9937°E)
Time: 17:35:58
(UTC+02:00)

ISS - Pass Details

Date: 15 March 2026
Orbit: 416 x 425 km, 51.6° (Epoch: 19 April)

Event Time Altitude Azimuth Distance (km) Brightness Sun altitude
Rises 21:19:27 0° 262° (W) 2,386 0.8 -25.4°
Reaches altitude 10° 21:21:34 10° 260° (W) 1,518 -0.4 -25.6°
Enters shadow 21:22:41 19° 256° (WSW) 1,080 -1.3 -25.8°
